This is the latest recevied weather packets stored in our database for station/object WX4LTG. If no packets are shown the sender has not sent any weather packets the latest 10 day(s).
| Time | Temp. | Humidity | Pressure | Rain* | Wind** | Luminosity | Snow |
|---|---|---|---|---|---|---|---|
| 1777687779 | 29.44° C | 21% | 1008.4 hPa | 0 mm | - | 4 W/m² | - |
| 1777687477 | 29.44° C | 20% | 1008.5 hPa | 0 mm | - | 7 W/m² | - |
| 1777687173 | 29.44° C | 20% | 1008.1 hPa | 0 mm | - | 10 W/m² | - |
| 1777686871 | 30° C | 20% | 1008.1 hPa | 0 mm | - | 14 W/m² | - |
| 1777686567 | 30° C | 20% | 1008.4 hPa | 0 mm | - | 18 W/m² | - |
| 1777686264 | 30° C | 20% | 1008.4 hPa | 0 mm | - | 23 W/m² | - |
| 1777685961 | 30° C | 20% | 1008.4 hPa | 0 mm | - | 29 W/m² | - |
| 1777685656 | 30° C | 20% | 1008.3 hPa | 0 mm | - | 36 W/m² | - |
| 1777685353 | 30.56° C | 20% | 1008.4 hPa | 0 mm | - | 43 W/m² | - |
| 1777685051 | 30.56° C | 19% | 1008 hPa | 0 mm | - | 50 W/m² | - |
| 1777684748 | 30.56° C | 19% | 1008 hPa | 0 mm | - | 59 W/m² | - |
| 1777684444 | 30.56° C | 19% | 1008.5 hPa | 0 mm | - | 68 W/m² | - |
| 1777684141 | 31.11° C | 19% | 1008.4 hPa | 0 mm | - | 78 W/m² | - |
| 1777683838 | 30.56° C | 19% | 1008.5 hPa | 0 mm | - | 89 W/m² | - |
| 1777683535 | 30.56° C | 18% | 1008.3 hPa | 0 mm | - | 100 W/m² | - |
| 1777683233 | 30.56° C | 19% | 1008.3 hPa | 0 mm | - | 112 W/m² | - |
| 1777682930 | 30.56° C | 19% | 1008.5 hPa | 0 mm | - | 125 W/m² | - |
| 1777682626 | 30.56° C | 19% | 1008.1 hPa | 0 mm | - | 137 W/m² | - |
| 1777682323 | 31.11° C | 19% | 1008.3 hPa | 0 mm | - | 151 W/m² | - |
| 1777682020 | 30.56° C | 18% | 1008 hPa | 0 mm | - | 166 W/m² | - |
| 1777681717 | 30.56° C | 19% | 1008.1 hPa | 0 mm | - | 182 W/m² | - |
| 1777681414 | 31.11° C | 18% | 1008.3 hPa | 0 mm | - | 196 W/m² | - |
| 1777681111 | 31.11° C | 18% | 1008.5 hPa | 0 mm | - | 209 W/m² | - |
| 1777680809 | 31.11° C | 19% | 1008.4 hPa | 0 mm | - | 224 W/m² | - |
| 1777680506 | 31.11° C | 19% | 1008.4 hPa | 0 mm | - | 239 W/m² | - |
* Rain latest hour (hover to see other rain measurements)
** Current wind speed in m/s (hover to see current wind gust speed)